| time (UTC) | temp F | wind direction | speed knots | gust knots | rain 1hr in | rain 24hr in | rain mn in | humidity % | barometer mb |
| 20260507054956 | 52 | 155 | 0.0 | 0.0 | 0.00 | 0.01 | 0.01 | 93 | 1019.6 |
| 20260507054450 | 52 | 155 | 0.0 | 0.0 | 0.00 | 0.01 | 0.01 | 93 | 1019.6 |
| 20260507054216 | 52 | 155 | 0.0 | 0.0 | 0.00 | 0.01 | 0.01 | 93 | 1019.6 |
| 20260507053444 | 52 | 155 | 0.0 | 0.0 | 0.00 | 0.01 | 0.01 | 93 | 1019.6 |
| 20260507052944 | 52 | 155 | 0.0 | 0.0 | 0.00 | 0.01 | 0.01 | 93 | 1019.6 |
| 20260507052718 | 52 | 155 | 0.0 | 0.0 | 0.00 | 0.01 | 0.01 | 93 | 1019.5 |
| 20260507051944 | 52 | 155 | 0.0 | 0.0 | 0.00 | 0.01 | 0.01 | 93 | 1019.6 |
| 20260507051442 | 52 | 155 | 0.0 | 0.0 | 0.00 | 0.01 | 0.01 | 93 | 1019.5 |
| 20260507050939 | 53 | 155 | 0.0 | 0.0 | 0.00 | 0.01 | 0.01 | 93 | 1019.6 |
| 20260507050438 | 53 | 155 | 0.0 | 0.0 | 0.00 | 0.01 | 0.01 | 93 | 1019.6 |
| 20260507050158 | 53 | 155 | 0.0 | 0.0 | 0.00 | 0.01 | 0.01 | 93 | 1019.6 |
| 20260507045436 | 53 | 155 | 0.0 | 0.0 | 0.00 | 0.01 | 0.01 | 93 | 1019.6 |
| 20260507044936 | 53 | 155 | 0.0 | 0.0 | 0.00 | 0.01 | 0.01 | 93 | 1019.6 |
| 20260507044438 | 53 | 155 | 0.0 | 0.0 | 0.00 | 0.01 | 0.01 | 93 | 1019.6 |
| 20260507043936 | 53 | 155 | 0.0 | 0.0 | 0.00 | 0.01 | 0.01 | 93 | 1019.6 |
| 20260507043432 | 53 | 155 | 0.0 | 0.0 | 0.00 | 0.01 | 0.01 | 93 | 1019.5 |
| 20260507042933 | 53 | 155 | 0.0 | 0.0 | 0.00 | 0.01 | 0.01 | 93 | 1019.6 |
| 20260507042431 | 53 | 155 | 0.0 | 0.0 | 0.00 | 0.01 | 0.01 | 93 | 1019.6 |
| 20260507041929 | 53 | 155 | 0.0 | 0.0 | 0.00 | 0.01 | 0.01 | 93 | 1019.6 |
| 20260507041433 | 53 | 155 | 0.0 | 0.0 | 0.00 | 0.01 | 0.01 | 93 | 1019.6 |
| 20260507040931 | 53 | 155 | 0.0 | 0.0 | 0.00 | 0.01 | 0.01 | 93 | 1019.6 |
| 20260507040427 | 53 | 155 | 0.0 | 0.0 | 0.00 | 0.01 | 0.01 | 93 | 1019.5 |
| 20260507035922 | 53 | 155 | 0.0 | 0.0 | 0.00 | 0.01 | 0.01 | 93 | 1019.5 |
| 20260507035417 | 53 | 155 | 0.0 | 0.0 | 0.00 | 0.01 | 0.01 | 93 | 1019.5 |
| 20260507034913 | 53 | 155 | 0.0 | 0.0 | 0.00 | 0.01 | 0.01 | 93 | 1019.4 |
| 20260507034412 | 53 | 155 | 0.0 | 0.0 | 0.00 | 0.01 | 0.01 | 93 | 1019.3 |
| 20260507033914 | 53 | 155 | 0.0 | 0.0 | 0.00 | 0.01 | 0.01 | 93 | 1019.3 |
| 20260507033412 | 53 | 155 | 0.0 | 0.0 | 0.00 | 0.01 | 0.01 | 93 | 1019.2 |
| 20260507032911 | 54 | 155 | 0.0 | 0.0 | 0.00 | 0.01 | 0.01 | 93 | 1019.2 |
| 20260507032412 | 54 | 155 | 0.0 | 0.0 | 0.00 | 0.01 | 0.01 | 93 | 1019.2 |
| 20260507031915 | 54 | 155 | 0.0 | 0.0 | 0.00 | 0.01 | 0.01 | 93 | 1019.2 |
| 20260507031411 | 54 | 155 | 0.0 | 0.0 | 0.00 | 0.01 | 0.01 | 93 | 1019.2 |
| 20260507030914 | 54 | 155 | 0.0 | 0.0 | 0.00 | 0.01 | 0.01 | 93 | 1019.1 |
| 20260507030412 | 54 | 155 | 0.0 | 0.0 | 0.00 | 0.01 | 0.01 | 93 | 1019.1 |
| 20260507025915 | 54 | 155 | 0.0 | 0.0 | 0.00 | 0.01 | 0.01 | 93 | 1019.1 |
| 20260507025412 | 54 | 155 | 0.0 | 0.0 | 0.00 | 0.01 | 0.01 | 93 | 1019.0 |
| 20260507024913 | 54 | 155 | 0.0 | 0.0 | 0.00 | 0.01 | 0.01 | 93 | 1019.0 |
| 20260507024413 | 54 | 155 | 0.0 | 0.0 | 0.00 | 0.01 | 0.01 | 93 | 1019.0 |
| 20260507023913 | 54 | 155 | 0.0 | 0.0 | 0.00 | 0.01 | 0.01 | 92 | 1019.0 |
| 20260507023412 | 54 | 155 | 0.0 | 0.0 | 0.00 | 0.01 | 0.01 | 92 | 1019.0 |
| 20260507022912 | 54 | 155 | 0.0 | 0.0 | 0.00 | 0.01 | 0.01 | 92 | 1018.9 |
| 20260507022418 | 54 | 155 | 0.0 | 0.0 | 0.00 | 0.01 | 0.01 | 92 | 1018.9 |
| 20260507021910 | 54 | 155 | 0.0 | 0.0 | 0.01 | 0.01 | 0.01 | 92 | 1018.9 |
| 20260507021402 | 54 | 155 | 0.0 | 0.0 | 0.01 | 0.01 | 0.01 | 92 | 1019.0 |
| 20260507020900 | 54 | 155 | 0.0 | 0.0 | 0.01 | 0.01 | 0.01 | 92 | 1019.0 |
| 20260507020402 | 54 | 155 | 0.0 | 0.0 | 0.01 | 0.01 | 0.01 | 92 | 1019.0 |
| 20260507015900 | 54 | 155 | 0.0 | 0.0 | 0.01 | 0.01 | 0.01 | 92 | 1019.0 |
| 20260507015404 | 54 | 155 | 0.0 | 0.0 | 0.01 | 0.01 | 0.01 | 92 | 1019.0 |
| 20260507014901 | 54 | 155 | 0.0 | 0.0 | 0.01 | 0.01 | 0.01 | 92 | 1019.0 |
| 20260507014359 | 54 | 155 | 0.0 | 0.0 | 0.01 | 0.01 | 0.01 | 91 | 1018.9 |
| 20260507014114 | 54 | 155 | 0.0 | 0.0 | 0.01 | 0.01 | 0.01 | 91 | 1019.0 |
| 20260507013607 | 54 | 155 | 0.0 | 0.0 | 0.01 | 0.01 | 0.01 | 91 | 1018.9 |
| 20260507013449 | 54 | 155 | 0.0 | 0.0 | 0.01 | 0.01 | 0.01 | 91 | 1019.0 |
| 20260507012354 | 54 | 155 | 0.0 | 0.0 | 0.01 | 0.01 | 0.01 | 91 | 1019.0 |
| 20260507011857 | 54 | 155 | 0.0 | 0.0 | 0.00 | 0.00 | 0.00 | 92 | 1019.0 |
| 20260507011355 | 54 | 155 | 0.0 | 0.0 | 0.00 | 0.00 | 0.00 | 92 | 1019.0 |
| 20260507011332 | 54 | 155 | 0.0 | 0.0 | 0.00 | 0.00 | 0.00 | 92 | 1019.0 |
| 20260507010352 | 54 | 155 | 0.0 | 0.0 | 0.00 | 0.00 | 0.00 | 91 | 1019.2 |
| 20260507010125 | 55 | 155 | 0.0 | 0.0 | 0.00 | 0.00 | 0.00 | 91 | 1019.2 |
| 20260507005349 | 55 | 155 | 0.0 | 0.0 | 0.00 | 0.00 | 0.00 | 90 | 1019.3 |
| 20260507004851 | 55 | 155 | 0.0 | 0.0 | 0.00 | 0.00 | 0.00 | 90 | 1019.3 |
| 20260507004350 | 55 | 155 | 0.0 | 0.0 | 0.00 | 0.00 | 0.00 | 90 | 1019.4 |
| 20260507003844 | 55 | 155 | 0.0 | 0.0 | 0.00 | 0.00 | 0.00 | 90 | 1019.3 |
| 20260507003600 | 55 | 155 | 0.0 | 0.0 | 0.00 | 0.00 | 0.00 | 90 | 1019.4 |
| 20260507002834 | 55 | 155 | 0.0 | 0.0 | 0.00 | 0.00 | 0.00 | 90 | 1019.3 |
| 20260507002326 | 55 | 155 | 0.0 | 0.0 | 0.00 | 0.00 | 0.00 | 91 | 1019.3 |
| 20260507001820 | 55 | 155 | 0.0 | 0.0 | 0.00 | 0.00 | 0.00 | 90 | 1019.3 |
| 20260507001314 | 55 | 155 | 0.0 | 0.0 | 0.00 | 0.00 | 0.00 | 90 | 1019.2 |
| 20260507000809 | 55 | 155 | 0.0 | 0.0 | 0.00 | 0.00 | 0.00 | 89 | 1019.2 |
| 20260507000302 | 55 | 155 | 0.0 | 0.0 | 0.00 | 0.00 | 0.00 | 89 | 1019.2 |
| 20260506235757 | 55 | 155 | 0.0 | 0.0 | 0.00 | 0.00 | 0.00 | 88 | 1019.2 |
| 20260506235512 | 55 | 155 | 0.0 | 0.9 | 0.00 | 0.00 | 0.00 | 87 | 1019.3 |
| 20260506234745 | 56 | 155 | 0.0 | 1.7 | 0.00 | 0.00 | 0.00 | 86 | 1019.2 |
| 20260506234239 | 56 | 333 | 0.0 | 1.7 | 0.00 | 0.00 | 0.00 | 85 | 1019.2 |
| 20260506233732 | 57 | 336 | 0.0 | 0.0 | 0.00 | 0.00 | 0.00 | 84 | 1019.1 |
| 20260506233226 | 57 | 271 | 0.0 | 1.7 | 0.00 | 0.00 | 0.00 | 83 | 1019.1 |
| 20260506232721 | 58 | 86 | 0.0 | 1.7 | 0.00 | 0.00 | 0.00 | 83 | 1019.1 |
| 20260506232442 | 58 | 309 | 0.0 | 0.0 | 0.00 | 0.00 | 0.00 | 82 | 1019.0 |
| 20260506231935 | 58 | 283 | 0.0 | 0.0 | 0.00 | 0.00 | 0.00 | 81 | 1018.9 |
| 20260506231202 | 58 | 316 | 0.0 | 0.0 | 0.00 | 0.00 | 0.00 | 82 | 1018.9 |
| 20260506230658 | 58 | 295 | 0.0 | 0.9 | 0.00 | 0.00 | 0.00 | 81 | 1018.8 |
| 20260506230150 | 58 | 327 | 0.0 | 4.3 | 0.00 | 0.00 | 0.00 | 81 | 1018.8 |
| 20260506225644 | 58 | 316 | 0.0 | 4.3 | 0.00 | 0.00 | 0.00 | 81 | 1018.8 |
| 20260506225138 | 59 | 275 | 0.0 | 1.7 | 0.00 | 0.00 | 0.00 | 80 | 1018.9 |
| 20260506224632 | 59 | 185 | 0.0 | 5.2 | 0.00 | 0.00 | 0.00 | 80 | 1018.9 |
| 20260506224126 | 59 | 139 | 0.0 | 5.2 | 0.00 | 0.00 | 0.00 | 79 | 1018.9 |
| 20260506223620 | 60 | 166 | 0.0 | 0.0 | 0.00 | 0.00 | 0.00 | 79 | 1018.9 |
| 20260506223114 | 60 | 257 | 0.0 | 1.7 | 0.00 | 0.00 | 0.00 | 80 | 1018.9 |
| 20260506222842 | 60 | 256 | 0.0 | 1.7 | 0.00 | 0.00 | 0.00 | 79 | 1018.9 |
| 20260506222102 | 60 | 247 | 0.0 | 2.6 | 0.00 | 0.00 | 0.00 | 80 | 1018.9 |
| 20260506221557 | 60 | 217 | 0.0 | 2.6 | 0.00 | 0.00 | 0.00 | 79 | 1018.9 |
| 20260506221313 | 60 | 155 | 0.0 | 1.7 | 0.00 | 0.00 | 0.00 | 79 | 1018.8 |
| 20260506220545 | 60 | 87 | 0.0 | 11.3 | 0.00 | 0.00 | 0.00 | 82 | 1018.7 |
| 20260506220304 | 60 | 196 | 0.0 | 11.3 | 0.00 | 0.00 | 0.00 | 79 | 1018.7 |
| 20260506215532 | 60 | 202 | 0.0 | 8.7 | 0.00 | 0.00 | 0.00 | 76 | 1018.8 |
| 20260506215027 | 61 | 173 | 0.0 | 8.7 | 0.00 | 0.00 | 0.00 | 77 | 1018.8 |
| 20260506214523 | 61 | 41 | 0.0 | 6.1 | 0.00 | 0.00 | 0.00 | 75 | 1018.7 |
| 20260506214023 | 62 | 95 | 0.0 | 0.9 | 0.00 | 0.00 | 0.00 | 74 | 1018.7 |
| 20260506213524 | 62 | 177 | 0.0 | 0.9 | 0.00 | 0.00 | 0.00 | 79 | 1018.7 |
| 20260506213240 | 62 | 89 | 0.0 | 1.7 | 0.00 | 0.00 | 0.00 | 75 | 1018.7 |
| 20260506212521 | 63 | 355 | 0.0 | 1.7 | 0.00 | 0.00 | 0.00 | 76 | 1018.8 |
| 20260506212020 | 63 | 117 | 0.0 | 0.9 | 0.00 | 0.00 | 0.00 | 74 | 1018.7 |
| 20260506211521 | 63 | 297 | 0.0 | 0.9 | 0.00 | 0.00 | 0.00 | 77 | 1018.8 |
| 20260506211241 | 63 | 219 | 0.0 | 0.0 | 0.00 | 0.00 | 0.00 | 78 | 1018.7 |
| 20260506210518 | 62 | 53 | 0.0 | 0.0 | 0.00 | 0.00 | 0.00 | 79 | 1018.6 |
| 20260506210015 | 62 | 279 | 0.0 | 0.0 | 0.00 | 0.00 | 0.00 | 78 | 1018.6 |
| 20260506205750 | 61 | 152 | 0.0 | 0.0 | 0.00 | 0.00 | 0.00 | 78 | 1018.5 |
| 20260506205011 | 61 | 153 | 0.0 | 0.0 | 0.00 | 0.00 | 0.00 | 77 | 1018.5 |
| 20260506204510 | 61 | 139 | 0.0 | 0.0 | 0.00 | 0.00 | 0.00 | 76 | 1018.6 |
| 20260506204009 | 62 | 330 | 0.0 | 0.9 | 0.00 | 0.00 | 0.00 | 76 | 1018.5 |
| 20260506203733 | 62 | 160 | 0.0 | 0.9 | 0.00 | 0.00 | 0.00 | 77 | 1018.5 |
| 20260506203011 | 63 | 91 | 0.0 | 0.9 | 0.00 | 0.00 | 0.00 | 74 | 1018.5 |
| 20260506202511 | 64 | 280 | 0.0 | 0.0 | 0.00 | 0.00 | 0.00 | 73 | 1018.4 |
| 20260506202011 | 64 | 143 | 0.0 | 0.0 | 0.00 | 0.00 | 0.00 | 73 | 1018.4 |
| 20260506201509 | 65 | 143 | 0.0 | 2.6 | 0.00 | 0.00 | 0.00 | 74 | 1018.4 |
| 20260506201009 | 65 | 325 | 0.0 | 2.6 | 0.00 | 0.00 | 0.00 | 75 | 1018.4 |
| 20260506200509 | 64 | 203 | 0.0 | 0.9 | 0.00 | 0.00 | 0.00 | 76 | 1018.1 |
| 20260506200011 | 64 | 310 | 0.0 | 0.0 | 0.00 | 0.00 | 0.00 | 77 | 1018.3 |
| 20260506195508 | 63 | 201 | 0.0 | 0.0 | 0.00 | 0.00 | 0.00 | 80 | 1018.3 |
| 20260506195010 | 62 | 200 | 0.0 | 0.0 | 0.00 | 0.00 | 0.00 | 79 | 1018.3 |
| 20260506194727 | 62 | 200 | 0.0 | 0.0 | 0.00 | 0.00 | 0.00 | 80 | 1018.3 |
| 20260506194011 | 61 | 173 | 0.0 | 0.0 | 0.00 | 0.00 | 0.00 | 81 | 1018.3 |
| 20260506193509 | 61 | 120 | 0.0 | 0.0 | 0.00 | 0.00 | 0.00 | 82 | 1018.4 |
| 20260506193010 | 61 | 101 | 0.0 | 0.9 | 0.00 | 0.00 | 0.00 | 82 | 1018.5 |
| 20260506192509 | 61 | 114 | 0.0 | 0.9 | 0.00 | 0.00 | 0.00 | 78 | 1018.4 |
| 20260506192011 | 61 | 151 | 0.0 | 0.0 | 0.00 | 0.00 | 0.00 | 81 | 1018.3 |
| 20260506191510 | 60 | 321 | 0.0 | 0.0 | 0.00 | 0.00 | 0.00 | 80 | 1018.4 |
| 20260506191230 | 60 | 265 | 0.0 | 0.0 | 0.00 | 0.00 | 0.00 | 84 | 1018.5 |
| 20260506190507 | 59 | 164 | 0.0 | 0.0 | 0.00 | 0.00 | 0.00 | 82 | 1018.5 |
| 20260506190007 | 60 | 327 | 0.0 | 0.0 | 0.00 | 0.00 | 0.00 | 82 | 1018.5 |
| 20260506185735 | 60 | 299 | 0.0 | 0.0 | 0.00 | 0.00 | 0.00 | 82 | 1018.4 |
| 20260506185455 | 59 | 304 | 0.0 | 0.0 | 0.00 | 0.00 | 0.00 | 83 | 1018.4 |
| 20260506184504 | 59 | 304 | 0.0 | 0.0 | 0.00 | 0.00 | 0.00 | 84 | 1018.4 |
| 20260506184000 | 59 | 331 | 0.0 | 0.0 | 0.00 | 0.00 | 0.00 | 84 | 1018.3 |
| 20260506183507 | 59 | 311 | 0.0 | 0.0 | 0.00 | 0.00 | 0.00 | 84 | 1018.1 |
| 20260506183000 | 58 | 89 | 0.0 | 0.0 | 0.00 | 0.00 | 0.00 | 85 | 1018.1 |
| 20260506182452 | 58 | 94 | 0.0 | 1.7 | 0.00 | 0.00 | 0.00 | 85 | 1018.1 |
| 20260506181946 | 58 | 309 | 0.0 | 1.7 | 0.00 | 0.00 | 0.00 | 85 | 1018.1 |
| 20260506181439 | 58 | 148 | 0.0 | 1.7 | 0.00 | 0.00 | 0.00 | 85 | 1018.1 |
| 20260506180933 | 58 | 150 | 0.0 | 0.9 | 0.00 | 0.00 | 0.00 | 87 | 1018.3 |
| 20260506180428 | 57 | 265 | 0.0 | 1.7 | 0.00 | 0.00 | 0.00 | 85 | 1018.4 |
| 20260506175923 | 58 | 230 | 0.0 | 1.7 | 0.00 | 0.00 | 0.00 | 84 | 1018.5 |
| 20260506175415 | 58 | 202 | 0.0 | 1.7 | 0.00 | 0.00 | 0.00 | 84 | 1018.4 |
| 20260506174910 | 58 | 299 | 0.0 | 0.9 | 0.00 | 0.00 | 0.00 | 85 | 1018.5 |
| 20260506174406 | 58 | 288 | 0.0 | 0.9 | 0.00 | 0.00 | 0.00 | 85 | 1018.5 |
| 20260506174113 | 58 | 254 | 0.0 | 0.9 | 0.00 | 0.00 | 0.00 | 85 | 1018.5 |
| 20260506173831 | 58 | 327 | 0.0 | 0.9 | 0.00 | 0.00 | 0.00 | 86 | 1018.4 |
| 20260506172846 | 58 | 327 | 0.0 | 0.9 | 0.00 | 0.00 | 0.00 | 87 | 1018.3 |
| 20260506172342 | 58 | 327 | 0.0 | 0.9 | 0.00 | 0.00 | 0.00 | 85 | 1018.1 |
| 20260506172053 | 58 | 327 | 0.0 | 0.9 | 0.00 | 0.00 | 0.00 | 85 | 1018.1 |
| 20260506171328 | 57 | 315 | 0.0 | 0.9 | 0.00 | 0.00 | 0.00 | 86 | 1018.0 |
| 20260506170821 | 57 | 304 | 0.0 | 0.0 | 0.00 | 0.00 | 0.00 | 86 | 1018.0 |
| 20260506170319 | 57 | 304 | 0.0 | 0.0 | 0.00 | 0.00 | 0.00 | 87 | 1017.9 |
| 20260506165810 | 57 | 336 | 0.0 | 0.0 | 0.00 | 0.00 | 0.00 | 86 | 1017.8 |
| 20260506165305 | 57 | 336 | 0.0 | 0.0 | 0.00 | 0.00 | 0.00 | 87 | 1017.8 |
| 20260506164758 | 56 | 336 | 0.0 | 0.0 | 0.00 | 0.00 | 0.00 | 87 | 1017.9 |
| 20260506164254 | 56 | 336 | 0.0 | 0.0 | 0.00 | 0.00 | 0.00 | 89 | 1017.9 |
| 20260506164236 | 56 | 336 | 0.0 | 0.0 | 0.00 | 0.00 | 0.00 | 89 | 1017.9 |
| 20260506163241 | 56 | 309 | 0.0 | 0.0 | 0.00 | 0.00 | 0.00 | 88 | 1017.9 |
| 20260506162734 | 56 | 309 | 0.0 | 0.9 | 0.00 | 0.00 | 0.00 | 89 | 1018.0 |
| 20260506162457 | 56 | 323 | 0.0 | 0.9 | 0.00 | 0.00 | 0.00 | 90 | 1017.9 |
| 20260506161722 | 55 | 323 | 0.0 | 0.0 | 0.00 | 0.00 | 0.00 | 91 | 1017.9 |
| 20260506161216 | 55 | 323 | 0.0 | 0.0 | 0.00 | 0.00 | 0.00 | 91 | 1018.1 |
| 20260506160928 | 55 | 323 | 0.0 | 0.0 | 0.00 | 0.00 | 0.00 | 91 | 1018.1 |
| 20260506160207 | 55 | 323 | 0.0 | 0.0 | 0.00 | 0.00 | 0.00 | 91 | 1018.1 |
| 20260506155658 | 55 | 323 | 0.0 | 0.0 | 0.00 | 0.00 | 0.00 | 91 | 1018.0 |
| 20260506155151 | 54 | 323 | 0.0 | 0.0 | 0.00 | 0.00 | 0.00 | 91 | 1018.0 |
| 20260506154646 | 54 | 313 | 0.0 | 0.9 | 0.00 | 0.00 | 0.00 | 91 | 1017.9 |
| 20260506154359 | 54 | 40 | 0.0 | 0.9 | 0.00 | 0.00 | 0.00 | 92 | 1018.0 |
| 20260506153857 | 54 | 78 | 0.0 | 0.9 | 0.00 | 0.00 | 0.00 | 92 | 1017.9 |
| 20260506153128 | 54 | 247 | 0.0 | 0.9 | 0.00 | 0.00 | 0.00 | 93 | 1018.0 |
| 20260506152855 | 54 | 107 | 0.0 | 0.9 | 0.00 | 0.00 | 0.00 | 92 | 1018.0 |
| 20260506152118 | 54 | 22 | 0.0 | 0.0 | 0.00 | 0.00 | 0.00 | 92 | 1018.0 |
| 20260506151610 | 54 | 320 | 0.0 | 0.0 | 0.00 | 0.00 | 0.00 | 93 | 1018.1 |
| 20260506151104 | 54 | 320 | 0.0 | 0.0 | 0.00 | 0.00 | 0.00 | 93 | 1018.1 |
| 20260506150558 | 54 | 320 | 0.0 | 0.0 | 0.00 | 0.00 | 0.00 | 93 | 1018.0 |
| 20260506150054 | 54 | 51 | 0.0 | 0.0 | 0.00 | 0.00 | 0.00 | 93 | 1018.0 |
| 20260506145040 | 53 | 51 | 0.0 | 0.0 | 0.00 | 0.00 | 0.00 | 93 | 1017.6 |
| 20260506144534 | 53 | 52 | 0.0 | 0.0 | 0.00 | 0.00 | 0.00 | 93 | 1017.7 |
| 20260506144030 | 53 | 52 | 0.0 | 0.0 | 0.00 | 0.00 | 0.00 | 94 | 1017.8 |
| 20260506143744 | 53 | 52 | 0.0 | 0.0 | 0.00 | 0.00 | 0.00 | 94 | 1017.7 |
| 20260506143242 | 53 | 52 | 0.0 | 0.0 | 0.00 | 0.00 | 0.00 | 94 | 1017.9 |
| 20260506142510 | 53 | 52 | 0.0 | 0.0 | 0.00 | 0.00 | 0.00 | 94 | 1017.9 |
| 20260506142006 | 53 | 52 | 0.0 | 0.0 | 0.00 | 0.00 | 0.00 | 94 | 1018.0 |
| 20260506141725 | 53 | 52 | 0.0 | 0.0 | 0.00 | 0.00 | 0.00 | 93 | 1017.9 |
| 20260506140952 | 53 | 14 | 0.0 | 0.0 | 0.00 | 0.00 | 0.00 | 94 | 1018.0 |
| 20260506140446 | 53 | 326 | 0.0 | 0.0 | 0.00 | 0.00 | 0.00 | 94 | 1018.0 |
| 20260506135944 | 53 | 294 | 0.0 | 0.0 | 0.00 | 0.00 | 0.00 | 95 | 1017.9 |
| 20260506135434 | 53 | 134 | 0.0 | 0.0 | 0.00 | 0.00 | 0.00 | 95 | 1017.7 |
| 20260506134925 | 53 | 134 | 0.0 | 0.0 | 0.00 | 0.00 | 0.00 | 95 | 1017.7 |
| 20260506134420 | 53 | 134 | 0.0 | 0.0 | 0.00 | 0.00 | 0.00 | 95 | 1017.6 |
| 20260506133914 | 53 | 134 | 0.0 | 0.9 | 0.00 | 0.00 | 0.00 | 95 | 1017.3 |
| 20260506133407 | 53 | 134 | 0.0 | 0.9 | 0.00 | 0.00 | 0.00 | 96 | 1017.5 |
| 20260506132901 | 52 | 79 | 0.0 | 0.0 | 0.00 | 0.00 | 0.00 | 96 | 1017.5 |
| 20260506132629 | 52 | 79 | 0.0 | 0.0 | 0.00 | 0.00 | 0.00 | 96 | 1017.5 |
| 20260506131901 | 52 | 196 | 0.0 | 0.0 | 0.00 | 0.00 | 0.00 | 96 | 1017.4 |
| 20260506131402 | 52 | 196 | 0.0 | 0.0 | 0.00 | 0.00 | 0.00 | 96 | 1017.3 |
| 20260506130859 | 52 | 196 | 0.0 | 0.0 | 0.00 | 0.00 | 0.00 | 96 | 1017.3 |
| 20260506130358 | 52 | 196 | 0.0 | 0.0 | 0.00 | 0.00 | 0.00 | 96 | 1017.2 |
| 20260506125857 | 52 | 196 | 0.0 | 0.0 | 0.00 | 0.00 | 0.00 | 96 | 1017.2 |
| 20260506125358 | 52 | 196 | 0.0 | 0.0 | 0.00 | 0.00 | 0.00 | 96 | 1017.2 |
| 20260506124900 | 52 | 196 | 0.0 | 0.0 | 0.00 | 0.00 | 0.00 | 96 | 1017.2 |
| 20260506124359 | 52 | 196 | 0.0 | 0.0 | 0.00 | 0.00 | 0.00 | 96 | 1017.2 |
| 20260506123902 | 52 | 196 | 0.0 | 0.0 | 0.00 | 0.00 | 0.00 | 96 | 1017.2 |
| 20260506123354 | 52 | 196 | 0.0 | 0.0 | 0.00 | 0.00 | 0.00 | 96 | 1017.2 |
| 20260506122855 | 52 | 196 | 0.0 | 0.0 | 0.00 | 0.00 | 0.00 | 96 | 1017.1 |
| 20260506122354 | 52 | 196 | 0.0 | 0.0 | 0.00 | 0.00 | 0.00 | 96 | 1017.0 |
| 20260506121854 | 52 | 196 | 0.0 | 0.0 | 0.00 | 0.00 | 0.00 | 96 | 1017.0 |
| 20260506121353 | 52 | 196 | 0.0 | 0.0 | 0.00 | 0.00 | 0.00 | 96 | 1017.0 |
| 20260506121125 | 52 | 196 | 0.0 | 0.0 | 0.00 | 0.00 | 0.00 | 96 | 1016.9 |
| 20260506120353 | 52 | 196 | 0.0 | 0.0 | 0.00 | 0.00 | 0.00 | 96 | 1017.0 |
| 20260506115854 | 52 | 196 | 0.0 | 0.0 | 0.00 | 0.00 | 0.00 | 96 | 1017.0 |
| 20260506115356 | 52 | 196 | 0.0 | 0.0 | 0.00 | 0.00 | 0.00 | 96 | 1016.9 |
| 20260506114849 | 52 | 196 | 0.0 | 0.0 | 0.00 | 0.00 | 0.00 | 96 | 1016.8 |
| 20260506114342 | 52 | 196 | 0.0 | 0.0 | 0.00 | 0.00 | 0.00 | 96 | 1016.9 |
| 20260506113838 | 52 | 196 | 0.0 | 0.0 | 0.00 | 0.00 | 0.00 | 96 | 1016.9 |
| 20260506113331 | 52 | 196 | 0.0 | 0.0 | 0.00 | 0.00 | 0.00 | 96 | 1016.9 |
| 20260506112824 | 52 | 196 | 0.0 | 0.0 | 0.00 | 0.00 | 0.00 | 96 | 1016.8 |
| 20260506112319 | 51 | 196 | 0.0 | 0.0 | 0.00 | 0.00 | 0.00 | 96 | 1016.9 |
| 20260506112028 | 51 | 196 | 0.0 | 0.0 | 0.00 | 0.00 | 0.00 | 96 | 1016.9 |
| 20260506111306 | 51 | 196 | 0.0 | 0.0 | 0.00 | 0.00 | 0.00 | 96 | 1016.8 |
| 20260506110759 | 51 | 196 | 0.0 | 0.0 | 0.00 | 0.00 | 0.00 | 96 | 1016.8 |
| 20260506110255 | 51 | 196 | 0.0 | 0.0 | 0.00 | 0.00 | 0.00 | 96 | 1016.8 |
| 20260506105748 | 51 | 196 | 0.0 | 0.0 | 0.00 | 0.00 | 0.00 | 96 | 1016.7 |
| 20260506105505 | 51 | 196 | 0.0 | 0.0 | 0.00 | 0.00 | 0.00 | 96 | 1016.6 |
| 20260506104736 | 51 | 196 | 0.0 | 0.0 | 0.00 | 0.00 | 0.00 | 96 | 1016.6 |
| 20260506104232 | 51 | 196 | 0.0 | 0.0 | 0.00 | 0.00 | 0.00 | 96 | 1016.5 |
| 20260506103724 | 51 | 196 | 0.0 | 0.0 | 0.00 | 0.00 | 0.00 | 96 | 1016.4 |
| 20260506103303 | 51 | 196 | 0.0 | 0.0 | 0.00 | 0.00 | 0.00 | 96 | 1016.4 |
| 20260506102943 | 51 | 196 | 0.0 | 0.0 | 0.00 | 0.00 | 0.00 | 96 | 1016.3 |
| 20260506102206 | 51 | 196 | 0.0 | 0.0 | 0.00 | 0.00 | 0.00 | 96 | 1016.2 |
| 20260506101700 | 51 | 196 | 0.0 | 0.0 | 0.00 | 0.00 | 0.00 | 96 | 1016.2 |
| 20260506101155 | 51 | 196 | 0.0 | 0.0 | 0.00 | 0.00 | 0.00 | 96 | 1016.1 |
| 20260506100649 | 51 | 196 | 0.0 | 0.0 | 0.00 | 0.00 | 0.00 | 96 | 1016.0 |
| 20260506100142 | 51 | 196 | 0.0 | 0.0 | 0.00 | 0.00 | 0.00 | 96 | 1016.0 |
| 20260506095636 | 51 | 196 | 0.0 | 0.0 | 0.00 | 0.00 | 0.00 | 96 | 1016.0 |
| 20260506095131 | 51 | 196 | 0.0 | 0.0 | 0.00 | 0.00 | 0.00 | 96 | 1016.0 |
| 20260506094854 | 50 | 196 | 0.0 | 0.0 | 0.00 | 0.00 | 0.00 | 96 | 1016.0 |
| 20260506094311 | 50 | 196 | 0.0 | 0.0 | 0.00 | 0.00 | 0.00 | 96 | 1016.0 |
| 20260506093612 | 50 | 196 | 0.0 | 0.0 | 0.00 | 0.00 | 0.00 | 96 | 1015.9 |
| 20260506093107 | 50 | 196 | 0.0 | 0.0 | 0.00 | 0.00 | 0.00 | 96 | 1015.9 |
| 20260506092601 | 50 | 196 | 0.0 | 0.0 | 0.00 | 0.00 | 0.00 | 96 | 1016.0 |
| 20260506092054 | 50 | 196 | 0.0 | 0.0 | 0.00 | 0.00 | 0.00 | 96 | 1015.9 |
| 20260506091548 | 50 | 196 | 0.0 | 0.0 | 0.00 | 0.00 | 0.00 | 96 | 1015.9 |
| 20260506091043 | 50 | 196 | 0.0 | 0.0 | 0.00 | 0.00 | 0.00 | 96 | 1015.9 |
| 20260506090536 | 50 | 196 | 0.0 | 0.0 | 0.00 | 0.00 | 0.00 | 96 | 1015.9 |
| 20260506090030 | 50 | 196 | 0.0 | 0.0 | 0.00 | 0.00 | 0.00 | 96 | 1015.9 |
| 20260506085752 | 50 | 196 | 0.0 | 0.0 | 0.00 | 0.00 | 0.00 | 96 | 1015.8 |
| 20260506085510 | 49 | 196 | 0.0 | 0.0 | 0.00 | 0.00 | 0.00 | 96 | 1015.8 |
| 20260506084512 | 49 | 196 | 0.0 | 0.0 | 0.00 | 0.00 | 0.00 | 96 | 1015.9 |
| 20260506084006 | 49 | 196 | 0.0 | 0.0 | 0.00 | 0.00 | 0.00 | 96 | 1015.9 |
| 20260506083500 | 49 | 196 | 0.0 | 0.0 | 0.00 | 0.00 | 0.00 | 96 | 1015.8 |
| 20260506082955 | 49 | 196 | 0.0 | 0.0 | 0.00 | 0.00 | 0.00 | 95 | 1015.8 |
| 20260506082724 | 49 | 196 | 0.0 | 0.0 | 0.00 | 0.00 | 0.00 | 95 | 1015.8 |
| 20260506081942 | 49 | 196 | 0.0 | 0.0 | 0.00 | 0.00 | 0.00 | 95 | 1015.8 |
| 20260506081931 | 49 | 196 | 0.0 | 0.0 | 0.00 | 0.00 | 0.00 | 95 | 1015.8 |
| 20260506080942 | 49 | 196 | 0.0 | 0.0 | 0.00 | 0.00 | 0.00 | 95 | 1015.9 |
| 20260506080442 | 49 | 196 | 0.0 | 0.0 | 0.00 | 0.00 | 0.00 | 95 | 1015.8 |
| 20260506073436 | 49 | 196 | 0.0 | 0.0 | 0.00 | 0.00 | 0.00 | 95 | 1015.8 |
| 20260506073431 | 49 | 196 | 0.0 | 0.0 | 0.00 | 0.00 | 0.00 | 94 | 1015.8 |
| 20260506072436 | 49 | 196 | 0.0 | 0.0 | 0.00 | 0.00 | 0.00 | 95 | 1015.7 |
| 20260506071936 | 49 | 196 | 0.0 | 0.0 | 0.00 | 0.00 | 0.00 | 94 | 1015.7 |
| 20260506071437 | 49 | 196 | 0.0 | 0.0 | 0.00 | 0.00 | 0.00 | 94 | 1015.7 |
| 20260506070938 | 49 | 196 | 0.0 | 0.0 | 0.00 | 0.00 | 0.00 | 94 | 1015.7 |
| 20260506070437 | 49 | 196 | 0.0 | 0.0 | 0.00 | 0.00 | 0.00 | 94 | 1015.6 |
| 20260506062437 | 50 | 196 | 0.0 | 0.0 | 0.00 | 0.00 | 0.00 | 94 | 1015.1 |
| 20260506062151 | 50 | 196 | 0.0 | 0.0 | 0.00 | 0.00 | 0.00 | 94 | 1015.1 |
| 20260506061426 | 50 | 196 | 0.0 | 0.0 | 0.00 | 0.00 | 0.00 | 94 | 1015.1 |
| 20260506060920 | 50 | 196 | 0.0 | 0.0 | 0.00 | 0.00 | 0.00 | 94 | 1015.1 |
| 20260506060413 | 51 | 196 | 0.0 | 0.0 | 0.00 | 0.00 | 0.00 | 94 | 1015.1 |